#timestamp,LO_Frequency,Hit,StdDev 
1567735215.9,286046999.9,N
1567735235.7,286046998.1,N
1567735255.6,286046998.3,N
1567735275.4,286046999.3,N
1567735295.2,286047001.1,N
1567735315.1,286047001.2,N
1567735316.0,286047001.2,N
1567735335.8,286047001.1,N
1567735355.7,286047001.2,N
1567735375.5,286046998.5,N
1567735395.3,286047000.8,N
1567735415.2,286047000.5,N
1567735435.0,286047000.2,N
1567735435.9,286047000.2,N
1567735455.8,286047002.7,N
1567735475.6,286046999.8,N
1567735495.4,286047000.5,N
1567735515.3,286047000.1,N
1567735535.1,286047002.0,N
1567735555.8,286047002.6,N
1567735575.7,286047002.6,N
1567735595.5,286047000.2,N
1567735615.4,286047002.6,N
1567735635.2,286047000.2,N
1567735655.0,286046999.9,N
1567735655.9,286046999.9,N
1567735675.8,286046999.8,N
1567735695.6,286047000.5,N
1567735715.5,286047000.9,N
1567735735.3,286046998.2,N
1567735755.1,286047001.1,N
1567735775.9,286047001.0,N
1567735795.7,286047002.8,N
1567735815.5,286046999.7,N
1567735835.4,286047000.5,N
1567735855.2,286046999.8,N
1567735875.1,286046999.7,N
1567735876.0,286046999.7,N
1567735895.8,286047002.5,N
1567735915.6,286047002.1,N
1567735935.5,286047002.8,N
1567735955.3,286047002.4,N
1567735975.2,286047002.6,N
1567735995.9,286047002.1,N
1567736015.7,286047002.0,N
1567736035.6,286047002.1,N
1567736055.4,286047002.6,N
1567736075.2,286047002.0,N
1567736095.1,286047001.6,N
1567736096.0,286047001.6,N
1567736115.8,286047004.0,Y
1567736135.7,286047002.1,P
1567736155.6,286047002.5,P
1567736175.5,286047002.2,P
1567736195.3,286047002.8,Y
1567736215.2,286047000.7,P
1567736235.9,286046998.3,N
1567736255.7,286046999.6,N
1567736275.6,286046996.8,N
1567736295.4,286046996.8,N
1567736315.2,286046996.9,N
1567736335.1,286046996.7,N
1567736336.0,286046996.7,N
1567736355.8,286046998.2,N
1567736375.7,286046999.4,N
1567736395.5,286046999.3,N
1567736415.3,286046996.6,N
1567736435.2,286046998.8,N
1567736455.0,286046998.9,N
1567736455.9,286046998.9,N
1567736475.8,286046998.9,N
1567736495.6,286046998.7,N
1567736515.4,286046998.2,N
1567736535.3,286046998.2,N
1567736555.1,286047001.1,N
1567736575.8,286047001.0,N
1567736595.7,286046998.3,N
1567736615.5,286046998.3,N
1567736635.4,286046998.2,N
1567736655.2,286046998.1,N
1567736675.0,286047001.1,N
1567736675.9,286047001.1,N
1567736695.8,286046998.1,N
1567736715.7,286046998.4,N
1567736735.5,286046999.2,N
1567736755.3,286046998.8,N
1567736775.2,286046999.4,N
1567736795.0,286046996.5,N
1567736795.9,286046996.5,N
1567736815.7,286046999.4,N
1567736835.6,286046998.8,N
1567736855.4,286046998.9,N
1567736875.3,286046998.4,N
1567736895.1,286046998.7,N
1567736915.8,286046998.6,N
1567736935.7,286046998.3,N
1567736955.5,286046998.6,N
1567736975.4,286046998.6,N
1567736995.2,286046998.8,N
1567737015.0,286047001.2,N
1567737015.9,286047001.2,N
1567737035.8,286046996.8,N
1567737055.6,286046996.9,N
1567737075.4,286046999.2,N
1567737125.3,286047000.0,E
1567737135.2,286047000.8,N
1567737155.1,286047001.2,P
1567737156.0,286047001.2,P
1567737175.8,286047001.1,Y
1567737195.6,286046998.9,P
1567737215.5,286046998.8,N
1567737235.3,286046998.8,N
1567737255.2,286046999.5,N
1567737275.9,286046996.9,Y
1567737295.7,286046996.8,P
1567737315.6,286046999.3,N
1567737335.4,286046998.8,N
1567737355.3,286046998.8,N
1567737375.1,286046998.4,N
1567737376.0,286046998.4,N
1567737395.8,286046998.4,N
1567737415.7,286046998.7,N
1567737435.5,286046998.3,N
1567737455.3,286047000.8,N
1567737475.2,286047001.1,N
1567737495.0,286047000.8,N
1567737495.9,286047000.8,N
1567737515.8,286047000.5,N
1567737535.6,286047000.5,N
1567737555.4,286047000.4,N
1567737575.3,286047000.7,N
1567737595.1,286046999.9,N
1567737615.9,286047000.9,N
1567737635.7,286046999.8,N
1567737655.5,286047000.1,N
1567737675.4,286046999.7,N
1567737695.2,286046999.9,N
1567737715.1,286047000.3,N
1567737716.0,286047000.3,N
1567737735.8,286047002.8,N
1567737755.6,286047002.8,N
1567737775.5,286047002.6,N
1567737795.3,286047002.7,N
1567737815.2,286047002.5,N
1567737835.9,286047000.2,N
1567737855.7,286047000.8,N
1567737875.6,286047001.1,N
1567737895.4,286046998.6,N
1567737915.2,286046999.0,N
1567737935.1,286047001.1,N
1567737936.0,286047001.1,N
1567737955.8,286046998.4,N
1567737975.7,286046999.2,N
1567737995.5,286046996.9,N
1567738015.3,286046997.1,N
1567738035.2,286046996.6,N
1567738055.0,286046997.5,N
1567738055.9,286046997.5,N
1567738075.8,286046997.5,N
1567738095.6,286046997.7,N
1567738115.4,286046997.9,N
1567738135.3,286046997.9,N
1567738155.1,286046997.5,N
1567738175.9,286046998.0,N
1567738195.7,286046997.4,N
1567738215.6,286046994.9,N
1567738235.5,286046997.9,N
1567738255.3,286046997.5,N
1567738275.1,286046997.7,N
1567738295.9,286046995.3,N
1567738315.7,286046995.0,N
1567738335.6,286046995.2,N
1567738355.4,286046995.2,N
1567738375.2,286046995.4,N
1567738395.1,286046995.5,N
1567738396.0,286046995.5,N
1567738415.8,286046998.0,N
1567738435.6,286046997.2,N
1567738455.5,286046997.8,N
1567738475.3,286046997.6,N
1567738495.2,286046997.3,N
1567738515.9,286046997.4,N
1567738535.7,286046997.7,N
1567738555.6,286046997.6,N
1567738575.4,286046995.1,Y
1567738595.3,286046998.3,P
1567738615.1,286047000.7,N
1567738635.8,286047000.9,N
1567738655.7,286047000.7,N
1567738675.5,286046998.2,N
1567738695.4,286046998.2,N
1567738715.2,286046998.7,N
1567738735.0,286046998.3,N
1567738736.0,286046998.3,N
1567738755.8,286047000.7,N
1567738775.6,286047000.7,N
1567738795.5,286047000.7,N
